Simultaneous Nadir Overpasses (SNOs) Predictions

Prediction of SNOs between NOAA-20 and NOAA-19 Satellite Orbit:

Table of predicted SNOs for the next 14.0 days since TLE Epoch: 11/26/2022
Index Date (NOAA-20) Time (NOAA-20) Lat,Lon (NOAA-20) SZA (NOAA-20 ) Date (NOAA-19) Time (NOAA-19) Lat,Lon (NOAA-19) SZA (NOAA-19 ) Distance(km) Time Diff (sec)
1 12/09/2022 17:01:46 -75.68, 89.00 81.17 12/09/2022 17:00:38 -75.68, 86.55 81.01 67.44 68
2 12/09/2022 17:52:39 76.03,-104.85 99.25 12/09/2022 17:51:25 76.03,-104.92 99.27 1.74 74
3 12/09/2022 18:43:24 -76.06, 62.38 80.72 12/09/2022 18:42:29 -76.06, 62.41 80.71 1.02 55
4 12/09/2022 19:34:09 76.04,-130.25 99.26 12/09/2022 19:33:24 76.06,-130.32 99.30 2.75 45
5 12/09/2022 20:24:54 -76.06, 36.98 80.71 12/09/2022 20:24:28 -76.09, 37.02 80.68 2.53 26
6 12/09/2022 21:15:40 76.09,-155.81 99.33 12/09/2022 21:15:23 76.08,-155.72 99.32 2.62 17
7 12/09/2022 22:06:24 -76.07, 11.58 80.69 12/09/2022 22:06:28 -76.07, 11.45 80.69 3.38 4
8 12/09/2022 22:57:10 76.10, 178.79 99.35 12/09/2022 22:57:22 76.11, 178.88 99.35 2.63 12
9 12/09/2022 23:47:55 -76.13, -13.98 80.62 12/09/2022 23:48:27 -76.09, -13.95 80.66 3.62 32



Historial Predications of SNOs between NOAA-20 and NOAA-19
